"Sample Date","Sample Time","Sample Value","Units","Flow Rate","Sample Interval","Number Channels","Micron Size 0","Counts/Channel 0","Micron Size 1","Counts/Channel 1","Micron Size 2","Counts/Channel 2","Micron Size 3","Counts/Channel 3","Micron Size 4","Counts/Channel 4","Micron Size 5","Counts/Channel 5","Micron Size 6","Counts/Channel 6","Micron Size 7","Counts/Channel 7","Micron Size 8","Counts/Channel 8","Micron Size 9","Counts/Channel 9","Micron Size 10","Counts/Channel 10","Micron Size 11","Counts/Channel 11","Micron Size 12","Counts/Channel 12","Micron Size 13","Counts/Channel 13","Micron Size 14","Counts/Channel 14","Micron Size 15","Counts/Channel 15","Micron Size 16","Counts/Channel 16","Micron Size 17","Counts/Channel 17","Micron Size 18","Counts/Channel 18","Micron Size 19","Counts/Channel 19","Micron Size 20","Counts/Channel 20","Micron Size 21","Counts/Channel 21","Micron Size 22","Counts/Channel 22","Micron Size 23","Counts/Channel 23","Micron Size 24","Counts/Channel 24","Micron Size 25","Counts/Channel 25","Micron Size 26","Counts/Channel 26","Micron Size 27","Counts/Channel 27","Micron Size 28","Counts/Channel 28","Micron Size 29","Counts/Channel 29","Micron Size 30","Counts/Channel 30","Micron Size 31","Counts/Channel 31"
"04/06/08","16:00:01",24727.000,"cc",28317.740,6.00,6,0.100,22066.000,0.200,1154.000,0.300,625.000,0.500,622.000,1.000,260.000,5.000,0
"04/06/08","16:00:07",24429.000,"cc",28269.473,6.00,6,0.100,21809.000,0.200,1136.000,0.300,608.000,0.500,641.000,1.000,235.000,5.000,0
"04/06/08","16:00:13",24484.000,"cc",28276.898,6.00,6,0.100,21957.000,0.200,1082.000,0.300,583.000,0.500,632.000,1.000,230.000,5.000,0
"04/06/08","16:00:19",24722.000,"cc",28148.043,6.00,6,0.100,22126.000,0.200,1168.000,0.300,595.000,0.500,607.000,1.000,226.000,5.000,0
"04/06/08","16:00:25",24702.000,"cc",28381.248,6.00,6,0.100,22275.000,0.200,1077.000,0.300,544.000,0.500,566.000,1.000,240.000,5.000,0
"04/06/08","16:00:31",24745.000,"cc",28379.598,6.00,6,0.100,22015.000,0.200,1163.000,0.300,623.000,0.500,684.000,1.000,260.000,5.000,0
"04/06/08","16:00:37",24491.000,"cc",28231.941,6.00,6,0.100,21794.000,0.200,1185.000,0.300,617.000,0.500,649.000,1.000,246.000,5.000,0
"04/06/08","16:00:43",24830.000,"cc",28364.955,6.00,6,0.100,22264.000,0.200,1118.000,0.300,600.000,0.500,640.000,1.000,208.000,5.000,0
"04/06/08","16:00:49",24940.000,"cc",28361.484,6.00,6,0.100,22106.000,0.200,1209.000,0.300,634.000,0.500,711.000,1.000,280.000,5.000,0
"04/06/08","16:00:55",24862.000,"cc",28331.371,6.00,6,0.100,22130.000,0.200,1246.000,0.300,597.000,0.500,637.000,1.000,252.000,5.000,0
"04/06/08","16:01:01",24931.000,"cc",28227.080,6.00,6,0.100,22343.000,0.200,1207.000,0.300,567.000,0.500,586.000,1.000,228.000,5.000,0
"04/06/08","16:01:07",24947.000,"cc",28394.947,6.00,6,0.100,22308.000,0.200,1188.000,0.300,602.000,0.500,614.000,1.000,235.000,5.000,0
"04/06/08","16:01:13",25112.000,"cc",28232.465,6.00,6,0.100,22346.000,0.200,1196.000,0.300,634.000,0.500,686.000,1.000,250.000,5.000,0
"04/06/08","16:01:19",25299.000,"cc",28292.315,6.00,6,0.100,22490.000,0.200,1253.000,0.300,624.000,0.500,679.000,1.000,253.000,5.000,0
"04/06/08","16:01:25",24843.000,"cc",28375.291,6.00,6,0.100,22098.000,0.200,1179.000,0.300,582.000,0.500,715.000,1.000,269.000,5.000,0
"04/06/08","16:01:31",25326.000,"cc",28223.846,6.00,6,0.100,22463.000,0.200,1251.000,0.300,620.000,0.500,730.000,1.000,262.000,5.000,0
"04/06/08","16:01:37",25047.000,"cc",28356.904,6.00,6,0.100,22248.000,0.200,1286.000,0.300,618.000,0.500,633.000,1.000,262.000,5.000,0
"04/06/08","16:01:43",24804.000,"cc",28282.656,6.00,6,0.100,22136.000,0.200,1192.000,0.300,564.000,0.500,661.000,1.000,251.000,5.000,0
"04/06/08","16:01:49",24907.000,"cc",28313.695,6.00,6,0.100,22161.000,0.200,1219.000,0.300,627.000,0.500,667.000,1.000,233.000,5.000,0
"04/06/08","16:01:55",24689.000,"cc",28371.254,6.00,6,0.100,22140.000,0.200,1124.000,0.300,577.000,0.500,614.000,1.000,234.000,5.000,0
"04/06/08","16:02:01",24969.000,"cc",28290.994,6.00,6,0.100,22300.000,0.200,1200.000,0.300,621.000,0.500,600.000,1.000,248.000,5.000,0
"04/06/08","16:02:07",24797.000,"cc",28321.004,6.00,6,0.100,22250.000,0.200,1116.000,0.300,594.000,0.500,596.000,1.000,241.000,5.000,0
"04/06/08","16:02:13",24813.000,"cc",28288.506,6.00,6,0.100,22021.000,0.200,1222.000,0.300,614.000,0.500,699.000,1.000,257.000,5.000,0
"04/06/08","16:02:19",24562.000,"cc",28343.027,6.00,6,0.100,21944.000,0.200,1198.000,0.300,598.000,0.500,592.000,1.000,230.000,5.000,0
"04/06/08","16:02:25",24713.000,"cc",28398.287,6.00,6,0.100,21970.000,0.200,1240.000,0.300,608.000,0.500,635.000,1.000,260.000,5.000,0
"04/06/08","16:02:31",25070.000,"cc",28356.553,6.00,6,0.100,22030.000,0.200,1340.000,0.300,682.000,0.500,736.000,1.000,282.000,5.000,0
"04/06/08","16:02:37",25036.000,"cc",28233.268,6.00,6,0.100,22129.000,0.200,1276.000,0.300,676.000,0.500,706.000,1.000,249.000,5.000,0
"04/06/08","16:02:43",25645.000,"cc",28328.402,6.00,6,0.100,22178.000,0.200,1489.000,0.300,810.000,0.500,862.000,1.000,306.000,5.000,0
"04/06/08","16:02:49",24498.000,"cc",28343.086,6.00,6,0.100,21774.000,0.200,1163.000,0.300,600.000,0.500,681.000,1.000,280.000,5.000,0
"04/06/08","16:02:55",24882.000,"cc",28323.926,6.00,6,0.100,22091.000,0.200,1216.000,0.300,641.000,0.500,679.000,1.000,255.000,5.000,0
"04/06/08","16:03:01",25123.000,"cc",28356.070,6.00,6,0.100,21945.000,0.200,1391.000,0.300,732.000,0.500,760.000,1.000,295.000,5.000,0
"04/06/08","16:03:07",25102.000,"cc",28313.969,6.00,6,0.100,21958.000,0.200,1382.000,0.300,715.000,0.500,783.000,1.000,264.000,5.000,0
"04/06/08","16:03:13",25016.000,"cc",28308.750,6.00,6,0.100,21840.000,0.200,1389.000,0.300,753.000,0.500,753.000,1.000,281.000,5.000,0
"04/06/08","16:03:19",24647.000,"cc",28321.078,6.00,6,0.100,21606.000,0.200,1319.000,0.300,754.000,0.500,691.000,1.000,277.000,5.000,0
"04/06/08","16:03:25",25141.000,"cc",28300.504,6.00,6,0.100,21966.000,0.200,1385.000,0.300,755.000,0.500,755.000,1.000,280.000,5.000,0
"04/06/08","16:03:31",25740.000,"cc",28286.254,6.00,6,0.100,22124.000,0.200,1558.000,0.300,836.000,0.500,905.000,1.000,317.000,5.000,0
"04/06/08","16:03:37",25436.000,"cc",28310.039,6.00,6,0.100,22170.000,0.200,1460.000,0.300,761.000,0.500,762.000,1.000,283.000,5.000,0
"04/06/08","16:03:43",24983.000,"cc",28278.443,6.00,6,0.100,21865.000,0.200,1358.000,0.300,752.000,0.500,716.000,1.000,292.000,5.000,0
"04/06/08","16:03:49",26905.000,"cc",28342.719,6.00,6,0.100,22609.000,0.200,1823.000,0.300,1048.000,0.500,1036.000,1.000,389.000,5.000,0
"04/06/08","16:03:55",27064.000,"cc",28364.326,6.00,6,0.100,22726.000,0.200,1835.000,0.300,1094.000,0.500,1056.000,1.000,353.000,5.000,0
"04/06/08","16:04:01",25046.000,"cc",28335.371,6.00,6,0.100,21775.000,0.200,1385.000,0.300,832.000,0.500,756.000,1.000,298.000,5.000,0
"04/06/08","16:04:07",25729.000,"cc",28316.313,6.00,6,0.100,22432.000,0.200,1459.000,0.300,732.000,0.500,797.000,1.000,309.000,5.000,0
"04/06/08","16:04:13",26621.000,"cc",28313.092,6.00,6,0.100,23195.000,0.200,1598.000,0.300,777.000,0.500,792.000,1.000,258.000,5.000,1.000
"04/06/08","16:04:19",26349.000,"cc",28285.289,6.00,6,0.100,22759.000,0.200,1590.000,0.300,843.000,0.500,856.000,1.000,301.000,5.000,0
"04/06/08","16:04:25",26425.000,"cc",28276.520,6.00,6,0.100,22883.000,0.200,1550.000,0.300,847.000,0.500,838.000,1.000,307.000,5.000,0
"04/06/08","16:04:31",27349.000,"cc",28328.744,6.00,6,0.100,23806.000,0.200,1661.000,0.300,838.000,0.500,782.000,1.000,262.000,5.000,0
"04/06/08","16:04:37",28193.000,"cc",28326.932,6.00,6,0.100,24014.000,0.200,1898.000,0.300,957.000,0.500,967.000,1.000,357.000,5.000,0
"04/06/08","16:04:43",28833.000,"cc",28388.301,6.00,6,0.100,24448.000,0.200,1953.000,0.300,1098.000,0.500,980.000,1.000,354.000,5.000,0
"04/06/08","16:04:49",27516.000,"cc",28341.520,6.00,6,0.100,23221.000,0.200,1877.000,0.300,1113.000,0.500,940.000,1.000,365.000,5.000,0
"04/06/08","16:04:55",25596.000,"cc",28308.727,6.00,6,0.100,22044.000,0.200,1570.000,0.300,875.000,0.500,826.000,1.000,281.000,5.000,0
"04/06/08","16:05:01",33484.000,"cc",28314.664,6.00,6,0.100,28850.000,0.200,2255.000,0.300,1022.000,0.500,964.000,1.000,393.000,5.000,0
"04/06/08","16:05:07",26509.000,"cc",28286.697,6.00,6,0.100,23111.000,0.200,1562.000,0.300,784.000,0.500,763.000,1.000,289.000,5.000,0
"04/06/08","16:05:13",27123.000,"cc",28333.393,6.00,6,0.100,23782.000,0.200,1555.000,0.300,763.000,0.500,727.000,1.000,296.000,5.000,0
"04/06/08","16:05:19",24258.000,"cc",28267.309,6.00,6,0.100,21246.000,0.200,1319.000,0.300,698.000,0.500,714.000,1.000,281.000,5.000,0
"04/06/08","16:05:25",24260.000,"cc",28308.920,6.00,6,0.100,21198.000,0.200,1309.000,0.300,721.000,0.500,767.000,1.000,265.000,5.000,0
"04/06/08","16:05:31",23472.000,"cc",28258.287,6.00,6,0.100,20738.000,0.200,1146.000,0.300,657.000,0.500,678.000,1.000,253.000,5.000,0
"04/06/08","16:05:37",23299.000,"cc",28276.473,6.00,6,0.100,20562.000,0.200,1133.000,0.300,653.000,0.500,680.000,1.000,271.000,5.000,0
"04/06/08","16:05:43",22718.000,"cc",28363.824,6.00,6,0.100,20242.000,0.200,1032.000,0.300,548.000,0.500,627.000,1.000,269.000,5.000,0
"04/06/08","16:05:49",23094.000,"cc",28315.697,6.00,6,0.100,20412.000,0.200,1135.000,0.300,607.000,0.500,685.000,1.000,254.000,5.000,1.000
"04/06/08","16:05:55",23247.000,"cc",28342.232,6.00,6,0.100,20662.000,0.200,1127.000,0.300,572.000,0.500,627.000,1.000,259.000,5.000,0
"04/06/08","16:06:01",22584.000,"cc",28278.973,6.00,6,0.100,20130.000,0.200,1074.000,0.300,525.000,0.500,639.000,1.000,216.000,5.000,0
"04/06/08","16:06:07",22674.000,"cc",28330.662,6.00,6,0.100,20066.000,0.200,1075.000,0.300,588.000,0.500,698.000,1.000,247.000,5.000,0
"04/06/08","16:06:13",23204.000,"cc",28271.322,6.00,6,0.100,20526.000,0.200,1094.000,0.300,631.000,0.500,699.000,1.000,254.000,5.000,0
"04/06/08","16:06:19",22770.000,"cc",28324.283,6.00,6,0.100,20362.000,0.200,1058.000,0.300,542.000,0.500,565.000,1.000,243.000,5.000,0
"04/06/08","16:06:25",23041.000,"cc",28366.397,6.00,6,0.100,20351.000,0.200,1118.000,0.300,615.000,0.500,702.000,1.000,255.000,5.000,0
"04/06/08","16:06:31",23039.000,"cc",28362.031,6.00,6,0.100,20487.000,0.200,1063.000,0.300,618.000,0.500,615.000,1.000,256.000,5.000,0
"04/06/08","16:06:37",23882.000,"cc",28314.186,6.00,6,0.100,21061.000,0.200,1206.000,0.300,666.000,0.500,690.000,1.000,259.000,5.000,0
"04/06/08","16:06:43",23210.000,"cc",28363.033,6.00,6,0.100,20609.000,0.200,1063.000,0.300,628.000,0.500,643.000,1.000,267.000,5.000,0
"04/06/08","16:06:49",22464.000,"cc",28353.307,6.00,6,0.100,20007.000,0.200,1005.000,0.300,582.000,0.500,611.000,1.000,259.000,5.000,0
"04/06/08","16:06:55",23011.000,"cc",28326.147,6.00,6,0.100,20435.000,0.200,1072.000,0.300,625.000,0.500,621.000,1.000,258.000,5.000,0
"04/06/08","16:07:01",22872.000,"cc",28238.582,6.00,6,0.100,20243.000,0.200,1028.000,0.300,610.000,0.500,705.000,1.000,286.000,5.000,0
"04/06/08","16:07:07",22850.000,"cc",28312.371,6.00,6,0.100,20129.000,0.200,1130.000,0.300,652.000,0.500,670.000,1.000,268.000,5.000,1.000
"04/06/08","16:07:13",22682.000,"cc",28279.805,6.00,6,0.100,20109.000,0.200,1018.000,0.300,613.000,0.500,682.000,1.000,260.000,5.000,0
"04/06/08","16:07:19",22565.000,"cc",28359.625,6.00,6,0.100,19760.000,0.200,1152.000,0.300,640.000,0.500,717.000,1.000,296.000,5.000,0
"04/06/08","16:07:25",22295.000,"cc",28310.156,6.00,6,0.100,19970.000,0.200,1004.000,0.300,537.000,0.500,575.000,1.000,209.000,5.000,0
"04/06/08","16:07:31",22082.000,"cc",28328.373,6.00,6,0.100,19594.000,0.200,1006.000,0.300,583.000,0.500,626.000,1.000,273.000,5.000,0
"04/06/08","16:07:37",22268.000,"cc",28345.063,6.00,6,0.100,19781.000,0.200,1048.000,0.300,562.000,0.500,616.000,1.000,261.000,5.000,0
"04/06/08","16:07:43",22329.000,"cc",28253.662,6.00,6,0.100,19846.000,0.200,980.000,0.300,558.000,0.500,671.000,1.000,274.000,5.000,0
"04/06/08","16:07:49",22173.000,"cc",28360.434,6.00,6,0.100,19635.000,0.200,1049.000,0.300,546.000,0.500,660.000,1.000,283.000,5.000,0
"04/06/08","16:07:55",22158.000,"cc",28295.781,6.00,6,0.100,19738.000,0.200,1010.000,0.300,516.000,0.500,633.000,1.000,261.000,5.000,0
"04/06/08","16:08:01",22127.000,"cc",28373.260,6.00,6,0.100,19805.000,0.200,1023.000,0.300,484.000,0.500,604.000,1.000,211.000,5.000,0
"04/06/08","16:08:07",22009.000,"cc",28340.186,6.00,6,0.100,19604.000,0.200,958.000,0.300,520.000,0.500,669.000,1.000,258.000,5.000,0
"04/06/08","16:08:13",22278.000,"cc",28227.320,6.00,6,0.100,19818.000,0.200,1019.000,0.300,571.000,0.500,630.000,1.000,240.000,5.000,0
"04/06/08","16:08:19",22004.000,"cc",28345.746,6.00,6,0.100,19620.000,0.200,976.000,0.300,558.000,0.500,578.000,1.000,272.000,5.000,0
"04/06/08","16:08:25",22129.000,"cc",28337.152,6.00,6,0.100,19624.000,0.200,1035.000,0.300,589.000,0.500,635.000,1.000,246.000,5.000,0
"04/06/08","16:08:31",22178.000,"cc",28314.590,6.00,6,0.100,19488.000,0.200,1052.000,0.300,642.000,0.500,715.000,1.000,281.000,5.000,0
"04/06/08","16:08:37",21967.000,"cc",28283.209,6.00,6,0.100,19500.000,0.200,1037.000,0.300,556.000,0.500,631.000,1.000,243.000,5.000,0
"04/06/08","16:08:43",22414.000,"cc",28325.182,6.00,6,0.100,19855.000,0.200,1089.000,0.300,569.000,0.500,645.000,1.000,256.000,5.000,0
"04/06/08","16:08:49",22056.000,"cc",28326.523,6.00,6,0.100,19572.000,0.200,999.000,0.300,546.000,0.500,693.000,1.000,246.000,5.000,0
"04/06/08","16:08:55",22258.000,"cc",28245.473,6.00,6,0.100,19696.000,0.200,1064.000,0.300,604.000,0.500,641.000,1.000,253.000,5.000,0
"04/06/08","16:09:01",22239.000,"cc",28371.141,6.00,6,0.100,19605.000,0.200,1048.000,0.300,611.000,0.500,677.000,1.000,298.000,5.000,0
"04/06/08","16:09:07",21936.000,"cc",28327.672,6.00,6,0.100,19534.000,0.200,995.000,0.300,572.000,0.500,587.000,1.000,248.000,5.000,0
"04/06/08","16:09:13",22426.000,"cc",28263.877,6.00,6,0.100,19891.000,0.200,996.000,0.300,586.000,0.500,676.000,1.000,277.000,5.000,0
"04/06/08","16:09:19",22126.000,"cc",28397.748,6.00,6,0.100,19645.000,0.200,994.000,0.300,546.000,0.500,666.000,1.000,275.000,5.000,0
"04/06/08","16:09:25",21654.000,"cc",28285.488,6.00,6,0.100,19240.000,0.200,1016.000,0.300,495.000,0.500,646.000,1.000,257.000,5.000,0
"04/06/08","16:09:31",22211.000,"cc",28288.865,6.00,6,0.100,19641.000,0.200,1046.000,0.300,546.000,0.500,702.000,1.000,276.000,5.000,0
"04/06/08","16:09:37",21931.000,"cc",28343.012,6.00,6,0.100,19472.000,0.200,986.000,0.300,573.000,0.500,628.000,1.000,272.000,5.000,0
"04/06/08","16:09:43",21985.000,"cc",28339.190,6.00,6,0.100,19481.000,0.200,1050.000,0.300,568.000,0.500,621.000,1.000,265.000,5.000,0
"04/06/08","16:09:49",22259.000,"cc",28351.578,6.00,6,0.100,19580.000,0.200,1066.000,0.300,595.000,0.500,742.000,1.000,276.000,5.000,0
"04/06/08","16:09:55",21837.000,"cc",28294.906,6.00,6,0.100,19240.000,0.200,1030.000,0.300,573.000,0.500,721.000,1.000,273.000,5.000,0
"04/06/08","16:10:01",22100.000,"cc",28287.049,6.00,6,0.100,19464.000,0.200,1033.000,0.300,675.000,0.500,656.000,1.000,272.000,5.000,0
"04/06/08","16:10:07",21873.000,"cc",28263.006,6.00,6,0.100,19383.000,0.200,1013.000,0.300,608.000,0.500,627.000,1.000,242.000,5.000,0
"04/06/08","16:10:13",22064.000,"cc",28334.326,6.00,6,0.100,19444.000,0.200,1031.000,0.300,614.000,0.500,682.000,1.000,293.000,5.000,0
"04/06/08","16:10:19",21899.000,"cc",28336.080,6.00,6,0.100,19431.000,0.200,976.000,0.300,587.000,0.500,627.000,1.000,278.000,5.000,0
"04/06/08","16:10:25",21565.000,"cc",28306.678,6.00,6,0.100,19234.000,0.200,1023.000,0.300,486.000,0.500,590.000,1.000,232.000,5.000,0
"04/06/08","16:10:31",21294.000,"cc",28299.981,6.00,6,0.100,19032.000,0.200,968.000,0.300,522.000,0.500,536.000,1.000,236.000,5.000,0
"04/06/08","16:10:37",20947.000,"cc",28285.596,6.00,6,0.100,18679.000,0.200,919.000,0.300,533.000,0.500,563.000,1.000,253.000,5.000,0
"04/06/08","16:10:43",20936.000,"cc",28313.297,6.00,6,0.100,18691.000,0.200,925.000,0.300,520.000,0.500,578.000,1.000,221.000,5.000,1.000
"04/06/08","16:10:49",21571.000,"cc",28286.660,6.00,6,0.100,19009.000,0.200,1042.000,0.300,589.000,0.500,670.000,1.000,261.000,5.000,0
"04/06/08","16:10:55",20935.000,"cc",28301.539,6.00,6,0.100,18615.000,0.200,945.000,0.300,490.000,0.500,609.000,1.000,276.000,5.000,0
"04/06/08","16:11:01",21064.000,"cc",28308.305,6.00,6,0.100,18700.000,0.200,915.000,0.300,578.000,0.500,640.000,1.000,231.000,5.000,0
"04/06/08","16:11:07",20713.000,"cc",28314.369,6.00,6,0.100,18498.000,0.200,876.000,0.300,515.000,0.500,595.000,1.000,229.000,5.000,0
"04/06/08","16:11:13",21324.000,"cc",28354.842,6.00,6,0.100,18741.000,0.200,996.000,0.300,601.000,0.500,718.000,1.000,268.000,5.000,0
"04/06/08","16:11:19",20803.000,"cc",28337.836,6.00,6,0.100,18460.000,0.200,943.000,0.300,544.000,0.500,601.000,1.000,255.000,5.000,0
"04/06/08","16:11:25",20701.000,"cc",28340.543,6.00,6,0.100,18425.000,0.200,924.000,0.300,548.000,0.500,560.000,1.000,244.000,5.000,0
"04/06/08","16:11:31",21205.000,"cc",28275.234,6.00,6,0.100,18754.000,0.200,972.000,0.300,569.000,0.500,643.000,1.000,267.000,5.000,0
"04/06/08","16:11:37",21046.000,"cc",28340.008,6.00,6,0.100,18681.000,0.200,973.000,0.300,526.000,0.500,618.000,1.000,248.000,5.000,0
"04/06/08","16:11:43",20884.000,"cc",28295.731,6.00,6,0.100,18483.000,0.200,959.000,0.300,538.000,0.500,618.000,1.000,286.000,5.000,0
"04/06/08","16:11:49",20898.000,"cc",28331.395,6.00,6,0.100,18547.000,0.200,934.000,0.300,543.000,0.500,638.000,1.000,236.000,5.000,0
"04/06/08","16:11:55",20928.000,"cc",28314.596,6.00,6,0.100,18535.000,0.200,1007.000,0.300,539.000,0.500,632.000,1.000,215.000,5.000,0
"04/06/08","16:12:01",21013.000,"cc",28231.029,6.00,6,0.100,18632.000,0.200,951.000,0.300,550.000,0.500,618.000,1.000,262.000,5.000,0
"04/06/08","16:12:07",21100.000,"cc",28352.318,6.00,6,0.100,18607.000,0.200,982.000,0.300,606.000,0.500,655.000,1.000,250.000,5.000,0
"04/06/08","16:12:13",21295.000,"cc",28301.803,6.00,6,0.100,18734.000,0.200,978.000,0.300,580.000,0.500,712.000,1.000,291.000,5.000,0
"04/06/08","16:12:19",21158.000,"cc",28345.895,6.00,6,0.100,18638.000,0.200,989.000,0.300,582.000,0.500,689.000,1.000,260.000,5.000,0
"04/06/08","16:12:25",21063.000,"cc",28356.625,6.00,6,0.100,18547.000,0.200,1002.000,0.300,589.000,0.500,680.000,1.000,245.000,5.000,0
"04/06/08","16:12:31",20860.000,"cc",28378.598,6.00,6,0.100,18474.000,0.200,969.000,0.300,534.000,0.500,627.000,1.000,256.000,5.000,0
"04/06/08","16:12:37",20901.000,"cc",28274.857,6.00,6,0.100,18467.000,0.200,966.000,0.300,580.000,0.500,657.000,1.000,231.000,5.000,0
"04/06/08","16:12:43",20826.000,"cc",28331.346,6.00,6,0.100,18527.000,0.200,889.000,0.300,575.000,0.500,586.000,1.000,249.000,5.000,0
"04/06/08","16:12:49",21118.000,"cc",28252.488,6.00,6,0.100,18756.000,0.200,915.000,0.300,510.000,0.500,677.000,1.000,260.000,5.000,0
"04/06/08","16:12:55",20967.000,"cc",28323.301,6.00,6,0.100,18593.000,0.200,976.000,0.300,518.000,0.500,639.000,1.000,241.000,5.000,0
"04/06/08","16:13:01",21036.000,"cc",28318.174,6.00,6,0.100,18650.000,0.200,943.000,0.300,541.000,0.500,642.000,1.000,260.000,5.000,0
"04/06/08","16:13:07",21069.000,"cc",28306.402,6.00,6,0.100,18567.000,0.200,1003.000,0.300,581.000,0.500,660.000,1.000,258.000,5.000,0
"04/06/08","16:13:13",21077.000,"cc",28396.717,6.00,6,0.100,18551.000,0.200,1030.000,0.300,586.000,0.500,671.000,1.000,239.000,5.000,0
"04/06/08","16:13:19",20930.000,"cc",28202.758,6.00,6,0.100,18438.000,0.200,1020.000,0.300,573.000,0.500,636.000,1.000,263.000,5.000,0
"04/06/08","16:13:25",21179.000,"cc",28359.490,6.00,6,0.100,18677.000,0.200,985.000,0.300,589.000,0.500,668.000,1.000,260.000,5.000,0
"04/06/08","16:13:31",21131.000,"cc",28350.777,6.00,6,0.100,18658.000,0.200,997.000,0.300,591.000,0.500,626.000,1.000,259.000,5.000,0
"04/06/08","16:13:37",21128.000,"cc",28428.106,6.00,6,0.100,18683.000,0.200,976.000,0.300,611.000,0.500,605.000,1.000,253.000,5.000,0
"04/06/08","16:13:43",20952.000,"cc",28336.410,6.00,6,0.100,18393.000,0.200,1006.000,0.300,595.000,0.500,669.000,1.000,289.000,5.000,0
"04/06/08","16:13:49",21064.000,"cc",28226.322,6.00,6,0.100,18484.000,0.200,1023.000,0.300,592.000,0.500,708.000,1.000,257.000,5.000,0
"04/06/08","16:13:55",20842.000,"cc",28351.695,6.00,6,0.100,18291.000,0.200,1033.000,0.300,564.000,0.500,673.000,1.000,281.000,5.000,0
"04/06/08","16:14:01",20929.000,"cc",28262.533,6.00,6,0.100,18412.000,0.200,970.000,0.300,614.000,0.500,675.000,1.000,258.000,5.000,0
"04/06/08","16:14:07",21124.000,"cc",28320.537,6.00,6,0.100,18511.000,0.200,1024.000,0.300,605.000,0.500,706.000,1.000,278.000,5.000,0
"04/06/08","16:14:13",21075.000,"cc",28386.615,6.00,6,0.100,18477.000,0.200,1002.000,0.300,615.000,0.500,701.000,1.000,280.000,5.000,0
"04/06/08","16:14:19",20682.000,"cc",28272.965,6.00,6,0.100,18255.000,0.200,916.000,0.300,572.000,0.500,666.000,1.000,273.000,5.000,0
"04/06/08","16:14:25",20892.000,"cc",28371.082,6.00,6,0.100,18255.000,0.200,1040.000,0.300,592.000,0.500,714.000,1.000,291.000,5.000,0
"04/06/08","16:14:31",20843.000,"cc",28304.441,6.00,6,0.100,18116.000,0.200,1074.000,0.300,662.000,0.500,696.000,1.000,295.000,5.000,0
"04/06/08","16:14:37",21272.000,"cc",28289.742,6.00,6,0.100,18532.000,0.200,1052.000,0.300,650.000,0.500,743.000,1.000,295.000,5.000,0
"04/06/08","16:14:43",20712.000,"cc",28274.760,6.00,6,0.100,18098.000,0.200,971.000,0.300,611.000,0.500,730.000,1.000,302.000,5.000,0
"04/06/08","16:14:49",20529.000,"cc",28316.805,6.00,6,0.100,18023.000,0.200,1014.000,0.300,597.000,0.500,640.000,1.000,255.000,5.000,0
"04/06/08","16:14:55",21029.000,"cc",28381.377,6.00,6,0.100,18387.000,0.200,1008.000,0.300,629.000,0.500,715.000,1.000,290.000,5.000,0
"04/06/08","16:15:01",20738.000,"cc",28240.756,6.00,6,0.100,18165.000,0.200,1043.000,0.300,557.000,0.500,683.000,1.000,290.000,5.000,0
"04/06/08","16:15:07",21248.000,"cc",28313.565,6.00,6,0.100,18416.000,0.200,1109.000,0.300,678.000,0.500,769.000,1.000,276.000,5.000,0
"04/06/08","16:15:13",20896.000,"cc",28375.740,6.00,6,0.100,18286.000,0.200,939.000,0.300,618.000,0.500,765.000,1.000,288.000,5.000,0
"04/06/08","16:15:19",20947.000,"cc",28247.654,6.00,6,0.100,18134.000,0.200,1052.000,0.300,679.000,0.500,779.000,1.000,303.000,5.000,0
"04/06/08","16:15:25",20664.000,"cc",28352.856,6.00,6,0.100,18281.000,0.200,956.000,0.300,524.000,0.500,650.000,1.000,253.000,5.000,0
"04/06/08","16:15:31",20471.000,"cc",28356.205,6.00,6,0.100,18062.000,0.200,953.000,0.300,565.000,0.500,641.000,1.000,250.000,5.000,0
"04/06/08","16:15:37",20610.000,"cc",28321.856,6.00,6,0.100,18093.000,0.200,998.000,0.300,581.000,0.500,662.000,1.000,276.000,5.000,0
"04/06/08","16:15:43",20399.000,"cc",28331.631,6.00,6,0.100,17874.000,0.200,982.000,0.300,589.000,0.500,665.000,1.000,289.000,5.000,0
"04/06/08","16:15:49",20349.000,"cc",28275.514,6.00,6,0.100,18124.000,0.200,865.000,0.300,525.000,0.500,588.000,1.000,247.000,5.000,0
"04/06/08","16:15:55",20436.000,"cc",28345.203,6.00,6,0.100,17959.000,0.200,957.000,0.300,551.000,0.500,696.000,1.000,273.000,5.000,0
"04/06/08","16:16:01",20602.000,"cc",28303.951,6.00,6,0.100,18133.000,0.200,972.000,0.300,545.000,0.500,688.000,1.000,264.000,5.000,0
"04/06/08","16:16:07",20800.000,"cc",28303.580,6.00,6,0.100,18333.000,0.200,956.000,0.300,571.000,0.500,672.000,1.000,268.000,5.000,0
"04/06/08","16:16:13",20541.000,"cc",28298.258,6.00,6,0.100,18021.000,0.200,993.000,0.300,575.000,0.500,666.000,1.000,286.000,5.000,0
"04/06/08","16:16:19",20449.000,"cc",28273.768,6.00,6,0.100,18012.000,0.200,943.000,0.300,576.000,0.500,685.000,1.000,233.000,5.000,0
"04/06/08","16:16:25",20705.000,"cc",28373.203,6.00,6,0.100,18115.000,0.200,1012.000,0.300,617.000,0.500,688.000,1.000,273.000,5.000,0
"04/06/08","16:16:31",20676.000,"cc",28286.426,6.00,6,0.100,18105.000,0.200,1027.000,0.300,583.000,0.500,688.000,1.000,273.000,5.000,0
"04/06/08","16:16:37",20699.000,"cc",28240.254,6.00,6,0.100,18116.000,0.200,994.000,0.300,610.000,0.500,697.000,1.000,282.000,5.000,0